owner,sensor,date,latitude,longitude,vertical_datum,sea_water_practical_salinity,qcFlag 
WAVCIS,ioos:station:WAVCIS:CSI16:2,2010-11-01T00:00:00Z,29.4012,-89.0355,1.0,32.331,11111222 
WAVCIS,ioos:station:WAVCIS:CSI16:2,2010-11-01T00:15:00Z,29.4012,-89.0355,1.0,32.31,11111222 
WAVCIS,ioos:station:WAVCIS:CSI16:2,2010-11-01T00:30:00Z,29.4012,-89.0355,1.0,32.372,11111222 
WAVCIS,ioos:station:WAVCIS:CSI16:2,2010-11-01T00:45:00Z,29.4012,-89.0355,1.0,32.402,11111222 
WAVCIS,ioos:station:WAVCIS:CSI16:2,2010-11-01T01:00:00Z,29.4012,-89.0355,1.0,32.327,11111222 
WAVCIS,ioos:station:WAVCIS:CSI16:2,2010-11-01T01:15:00Z,29.4012,-89.0355,1.0,32.405,11111222 
WAVCIS,ioos:station:WAVCIS:CSI16:2,2010-11-01T01:30:00Z,29.4012,-89.0355,1.0,32.268,11111222 
WAVCIS,ioos:station:WAVCIS:CSI16:2,2010-11-01T01:45:00Z,29.4012,-89.0355,1.0,32.221,11111222 
WAVCIS,ioos:station:WAVCIS:CSI16:2,2010-11-01T02:00:00Z,29.4012,-89.0355,1.0,32.233,11111222 
WAVCIS,ioos:station:WAVCIS:CSI16:2,2010-11-01T02:15:00Z,29.4012,-89.0355,1.0,32.303,11111222 
WAVCIS,ioos:station:WAVCIS:CSI16:2,2010-11-01T02:30:00Z,29.4012,-89.0355,1.0,32.325,11111222 
WAVCIS,ioos:station:WAVCIS:CSI16:2,2010-11-01T02:45:00Z,29.4012,-89.0355,1.0,32.313,11111222 
WAVCIS,ioos:station:WAVCIS:CSI16:2,2010-11-01T03:00:00Z,29.4012,-89.0355,1.0,32.308,11111222 
WAVCIS,ioos:station:WAVCIS:CSI16:2,2010-11-01T03:15:00Z,29.4012,-89.0355,1.0,32.28,11111222 
WAVCIS,ioos:station:WAVCIS:CSI16:2,2010-11-01T03:30:00Z,29.4012,-89.0355,1.0,32.337,11111222 
WAVCIS,ioos:station:WAVCIS:CSI16:2,2010-11-01T03:45:00Z,29.4012,-89.0355,1.0,32.366,11111222 
WAVCIS,ioos:station:WAVCIS:CSI16:2,2010-11-01T04:00:00Z,29.4012,-89.0355,1.0,32.377,11111222 
WAVCIS,ioos:station:WAVCIS:CSI16:2,2010-11-01T04:15:00Z,29.4012,-89.0355,1.0,32.377,11111222 
WAVCIS,ioos:station:WAVCIS:CSI16:2,2010-11-01T04:30:00Z,29.4012,-89.0355,1.0,32.367,11111222 
WAVCIS,ioos:station:WAVCIS:CSI16:2,2010-11-01T04:45:00Z,29.4012,-89.0355,1.0,32.339,11111222 
WAVCIS,ioos:station:WAVCIS:CSI16:2,2010-11-01T05:00:00Z,29.4012,-89.0355,1.0,32.357,11111222 
WAVCIS,ioos:station:WAVCIS:CSI16:2,2010-11-01T05:15:00Z,29.4012,-89.0355,1.0,32.288,11111222 
WAVCIS,ioos:station:WAVCIS:CSI16:2,2010-11-01T05:30:00Z,29.4012,-89.0355,1.0,32.289,11111222 
WAVCIS,ioos:station:WAVCIS:CSI16:2,2010-11-01T05:45:00Z,29.4012,-89.0355,1.0,32.307,11111222 
WAVCIS,ioos:station:WAVCIS:CSI16:2,2010-11-01T06:00:00Z,29.4012,-89.0355,1.0,32.323,11111222 
WAVCIS,ioos:station:WAVCIS:CSI16:2,2010-11-01T06:15:00Z,29.4012,-89.0355,1.0,32.348,11111222 
WAVCIS,ioos:station:WAVCIS:CSI16:2,2010-11-01T06:30:00Z,29.4012,-89.0355,1.0,32.308,11111222 
WAVCIS,ioos:station:WAVCIS:CSI16:2,2010-11-01T06:45:00Z,29.4012,-89.0355,1.0,32.358,11111222 
WAVCIS,ioos:station:WAVCIS:CSI16:2,2010-11-01T07:00:00Z,29.4012,-89.0355,1.0,32.365,11111222 
WAVCIS,ioos:station:WAVCIS:CSI16:2,2010-11-01T07:15:00Z,29.4012,-89.0355,1.0,32.368,11111222 
WAVCIS,ioos:station:WAVCIS:CSI16:2,2010-11-01T07:30:00Z,29.4012,-89.0355,1.0,32.366,11111222 
WAVCIS,ioos:station:WAVCIS:CSI16:2,2010-11-01T07:45:00Z,29.4012,-89.0355,1.0,32.362,11111222 
WAVCIS,ioos:station:WAVCIS:CSI16:2,2010-11-01T08:00:00Z,29.4012,-89.0355,1.0,32.347,11111222 
WAVCIS,ioos:station:WAVCIS:CSI16:2,2010-11-01T08:15:00Z,29.4012,-89.0355,1.0,32.357,11111222 
WAVCIS,ioos:station:WAVCIS:CSI16:2,2010-11-01T08:30:00Z,29.4012,-89.0355,1.0,32.338,11111222 
WAVCIS,ioos:station:WAVCIS:CSI16:2,2010-11-01T08:45:00Z,29.4012,-89.0355,1.0,32.328,11111222 
WAVCIS,ioos:station:WAVCIS:CSI16:2,2010-11-01T09:00:00Z,29.4012,-89.0355,1.0,32.326,11111222 
WAVCIS,ioos:station:WAVCIS:CSI16:2,2010-11-01T09:15:00Z,29.4012,-89.0355,1.0,32.303,11111222 
WAVCIS,ioos:station:WAVCIS:CSI16:2,2010-11-01T09:30:00Z,29.4012,-89.0355,1.0,32.322,11111222 
WAVCIS,ioos:station:WAVCIS:CSI16:2,2010-11-01T09:45:00Z,29.4012,-89.0355,1.0,32.327,11111222 
WAVCIS,ioos:station:WAVCIS:CSI16:2,2010-11-01T10:00:00Z,29.4012,-89.0355,1.0,32.329,11111222 
WAVCIS,ioos:station:WAVCIS:CSI16:2,2010-11-01T10:15:00Z,29.4012,-89.0355,1.0,32.337,11111222 
WAVCIS,ioos:station:WAVCIS:CSI16:2,2010-11-01T10:30:00Z,29.4012,-89.0355,1.0,32.345,11111222 
WAVCIS,ioos:station:WAVCIS:CSI16:2,2010-11-01T10:45:00Z,29.4012,-89.0355,1.0,32.324,11111222 
WAVCIS,ioos:station:WAVCIS:CSI16:2,2010-11-01T11:00:00Z,29.4012,-89.0355,1.0,32.333,11111222 
WAVCIS,ioos:station:WAVCIS:CSI16:2,2010-11-01T11:15:00Z,29.4012,-89.0355,1.0,32.355,11111222 
WAVCIS,ioos:station:WAVCIS:CSI16:2,2010-11-01T11:30:00Z,29.4012,-89.0355,1.0,32.366,11111222 
WAVCIS,ioos:station:WAVCIS:CSI16:2,2010-11-01T11:45:00Z,29.4012,-89.0355,1.0,32.365,11111222 
WAVCIS,ioos:station:WAVCIS:CSI16:2,2010-11-01T12:00:00Z,29.4012,-89.0355,1.0,32.382,11111222 
WAVCIS,ioos:station:WAVCIS:CSI16:2,2010-11-01T12:15:00Z,29.4012,-89.0355,1.0,32.365,11111222 
WAVCIS,ioos:station:WAVCIS:CSI16:2,2010-11-01T12:30:00Z,29.4012,-89.0355,1.0,32.406,11111222 
WAVCIS,ioos:station:WAVCIS:CSI16:2,2010-11-01T12:45:00Z,29.4012,-89.0355,1.0,32.41,11111222 
WAVCIS,ioos:station:WAVCIS:CSI16:2,2010-11-01T13:00:00Z,29.4012,-89.0355,1.0,32.408,11111222 
WAVCIS,ioos:station:WAVCIS:CSI16:2,2010-11-01T13:15:00Z,29.4012,-89.0355,1.0,32.435,11111222 
WAVCIS,ioos:station:WAVCIS:CSI16:2,2010-11-01T13:30:00Z,29.4012,-89.0355,1.0,32.404,11111222 
WAVCIS,ioos:station:WAVCIS:CSI16:2,2010-11-01T13:45:00Z,29.4012,-89.0355,1.0,32.437,11111222 
WAVCIS,ioos:station:WAVCIS:CSI16:2,2010-11-01T14:00:00Z,29.4012,-89.0355,1.0,32.303,11111222 
WAVCIS,ioos:station:WAVCIS:CSI16:2,2010-11-01T14:15:00Z,29.4012,-89.0355,1.0,32.398,11111222 
WAVCIS,ioos:station:WAVCIS:CSI16:2,2010-11-01T14:30:00Z,29.4012,-89.0355,1.0,32.382,11111222 
WAVCIS,ioos:station:WAVCIS:CSI16:2,2010-11-01T14:45:00Z,29.4012,-89.0355,1.0,32.384,11111222 
WAVCIS,ioos:station:WAVCIS:CSI16:2,2010-11-01T15:00:00Z,29.4012,-89.0355,1.0,32.382,11111222 
WAVCIS,ioos:station:WAVCIS:CSI16:2,2010-11-01T15:15:00Z,29.4012,-89.0355,1.0,32.374,11111222 
WAVCIS,ioos:station:WAVCIS:CSI16:2,2010-11-01T15:30:00Z,29.4012,-89.0355,1.0,32.402,11111222 
WAVCIS,ioos:station:WAVCIS:CSI16:2,2010-11-01T15:45:00Z,29.4012,-89.0355,1.0,32.355,11111222 
WAVCIS,ioos:station:WAVCIS:CSI16:2,2010-11-01T16:00:00Z,29.4012,-89.0355,1.0,32.316,11111222 
WAVCIS,ioos:station:WAVCIS:CSI16:2,2010-11-01T16:15:00Z,29.4012,-89.0355,1.0,32.363,11111222 
WAVCIS,ioos:station:WAVCIS:CSI16:2,2010-11-01T16:30:00Z,29.4012,-89.0355,1.0,32.336,11111222 
WAVCIS,ioos:station:WAVCIS:CSI16:2,2010-11-01T16:45:00Z,29.4012,-89.0355,1.0,32.343,11111222 
WAVCIS,ioos:station:WAVCIS:CSI16:2,2010-11-01T17:00:00Z,29.4012,-89.0355,1.0,32.36,11111222 
WAVCIS,ioos:station:WAVCIS:CSI16:2,2010-11-01T17:15:00Z,29.4012,-89.0355,1.0,32.325,11111222 
WAVCIS,ioos:station:WAVCIS:CSI16:2,2010-11-01T17:30:00Z,29.4012,-89.0355,1.0,32.332,11111222 
WAVCIS,ioos:station:WAVCIS:CSI16:2,2010-11-01T17:45:00Z,29.4012,-89.0355,1.0,32.376,11111222 
WAVCIS,ioos:station:WAVCIS:CSI16:2,2010-11-01T18:00:00Z,29.4012,-89.0355,1.0,32.345,11111222 
WAVCIS,ioos:station:WAVCIS:CSI16:2,2010-11-01T18:15:00Z,29.4012,-89.0355,1.0,32.314,11111222 
WAVCIS,ioos:station:WAVCIS:CSI16:2,2010-11-01T18:30:00Z,29.4012,-89.0355,1.0,32.324,11111222 
WAVCIS,ioos:station:WAVCIS:CSI16:2,2010-11-01T18:45:00Z,29.4012,-89.0355,1.0,32.31,11111222 
WAVCIS,ioos:station:WAVCIS:CSI16:2,2010-11-01T19:00:00Z,29.4012,-89.0355,1.0,32.357,11111222 
WAVCIS,ioos:station:WAVCIS:CSI16:2,2010-11-01T19:15:00Z,29.4012,-89.0355,1.0,32.347,11111222 
WAVCIS,ioos:station:WAVCIS:CSI16:2,2010-11-01T19:30:00Z,29.4012,-89.0355,1.0,32.304,11111222 
WAVCIS,ioos:station:WAVCIS:CSI16:2,2010-11-01T19:45:00Z,29.4012,-89.0355,1.0,32.312,11111222 
WAVCIS,ioos:station:WAVCIS:CSI16:2,2010-11-01T20:00:00Z,29.4012,-89.0355,1.0,32.303,11111222 
WAVCIS,ioos:station:WAVCIS:CSI16:2,2010-11-01T20:15:00Z,29.4012,-89.0355,1.0,32.297,11111222 
WAVCIS,ioos:station:WAVCIS:CSI16:2,2010-11-01T20:30:00Z,29.4012,-89.0355,1.0,32.22,11111222 
WAVCIS,ioos:station:WAVCIS:CSI16:2,2010-11-01T20:45:00Z,29.4012,-89.0355,1.0,32.281,11111222 
WAVCIS,ioos:station:WAVCIS:CSI16:2,2010-11-01T21:00:00Z,29.4012,-89.0355,1.0,32.242,11111222 
WAVCIS,ioos:station:WAVCIS:CSI16:2,2010-11-01T21:15:00Z,29.4012,-89.0355,1.0,32.166,11111222 
WAVCIS,ioos:station:WAVCIS:CSI16:2,2010-11-01T21:30:00Z,29.4012,-89.0355,1.0,32.276,11111222 
WAVCIS,ioos:station:WAVCIS:CSI16:2,2010-11-01T21:45:00Z,29.4012,-89.0355,1.0,32.19,11111222 
WAVCIS,ioos:station:WAVCIS:CSI16:2,2010-11-01T22:00:00Z,29.4012,-89.0355,1.0,32.151,11111222 
WAVCIS,ioos:station:WAVCIS:CSI16:2,2010-11-01T22:15:00Z,29.4012,-89.0355,1.0,32.127,11111222 
WAVCIS,ioos:station:WAVCIS:CSI16:2,2010-11-01T22:30:00Z,29.4012,-89.0355,1.0,32.195,11111222 
WAVCIS,ioos:station:WAVCIS:CSI16:2,2010-11-01T22:45:00Z,29.4012,-89.0355,1.0,32.182,11111222 
WAVCIS,ioos:station:WAVCIS:CSI16:2,2010-11-01T23:00:00Z,29.4012,-89.0355,1.0,32.055,11111222 
WAVCIS,ioos:station:WAVCIS:CSI16:2,2010-11-01T23:15:00Z,29.4012,-89.0355,1.0,32.302,11111222 
WAVCIS,ioos:station:WAVCIS:CSI16:2,2010-11-01T23:30:00Z,29.4012,-89.0355,1.0,32.333,11111222 
WAVCIS,ioos:station:WAVCIS:CSI16:2,2010-11-01T23:45:00Z,29.4012,-89.0355,1.0,32.463,11111222 
WAVCIS,ioos:station:WAVCIS:CSI16:2,2010-11-02T00:00:00Z,29.4012,-89.0355,1.0,32.376,11111222 
WAVCIS,ioos:station:WAVCIS:CSI16:2,2010-11-02T00:15:00Z,29.4012,-89.0355,1.0,32.222,11111222 
WAVCIS,ioos:station:WAVCIS:CSI16:2,2010-11-02T00:30:00Z,29.4012,-89.0355,1.0,32.238,11111222 
WAVCIS,ioos:station:WAVCIS:CSI16:2,2010-11-02T00:45:00Z,29.4012,-89.0355,1.0,32.235,11111222 
WAVCIS,ioos:station:WAVCIS:CSI16:2,2010-11-02T01:00:00Z,29.4012,-89.0355,1.0,32.244,11111222 
WAVCIS,ioos:station:WAVCIS:CSI16:2,2010-11-02T01:15:00Z,29.4012,-89.0355,1.0,32.235,11111222 
WAVCIS,ioos:station:WAVCIS:CSI16:2,2010-11-02T01:30:00Z,29.4012,-89.0355,1.0,32.265,11111222 
WAVCIS,ioos:station:WAVCIS:CSI16:2,2010-11-02T01:45:00Z,29.4012,-89.0355,1.0,32.286,11111222 
WAVCIS,ioos:station:WAVCIS:CSI16:2,2010-11-02T02:00:00Z,29.4012,-89.0355,1.0,32.277,11111222 
WAVCIS,ioos:station:WAVCIS:CSI16:2,2010-11-02T02:15:00Z,29.4012,-89.0355,1.0,32.327,11111222 
WAVCIS,ioos:station:WAVCIS:CSI16:2,2010-11-02T02:30:00Z,29.4012,-89.0355,1.0,32.219,11111222 
WAVCIS,ioos:station:WAVCIS:CSI16:2,2010-11-02T02:45:00Z,29.4012,-89.0355,1.0,32.324,11111222 
WAVCIS,ioos:station:WAVCIS:CSI16:2,2010-11-02T03:00:00Z,29.4012,-89.0355,1.0,32.388,11111222 
WAVCIS,ioos:station:WAVCIS:CSI16:2,2010-11-02T03:15:00Z,29.4012,-89.0355,1.0,32.36,11111222 
WAVCIS,ioos:station:WAVCIS:CSI16:2,2010-11-02T03:30:00Z,29.4012,-89.0355,1.0,32.362,11111222 
WAVCIS,ioos:station:WAVCIS:CSI16:2,2010-11-02T03:45:00Z,29.4012,-89.0355,1.0,32.38,11111222 
WAVCIS,ioos:station:WAVCIS:CSI16:2,2010-11-02T04:00:00Z,29.4012,-89.0355,1.0,32.418,11111222 
WAVCIS,ioos:station:WAVCIS:CSI16:2,2010-11-02T04:15:00Z,29.4012,-89.0355,1.0,32.413,11111222 
WAVCIS,ioos:station:WAVCIS:CSI16:2,2010-11-02T04:30:00Z,29.4012,-89.0355,1.0,32.42,11111222 
WAVCIS,ioos:station:WAVCIS:CSI16:2,2010-11-02T04:45:00Z,29.4012,-89.0355,1.0,32.434,11111222 
WAVCIS,ioos:station:WAVCIS:CSI16:2,2010-11-02T05:00:00Z,29.4012,-89.0355,1.0,32.431,11111222 
WAVCIS,ioos:station:WAVCIS:CSI16:2,2010-11-02T05:15:00Z,29.4012,-89.0355,1.0,32.461,11111222 
WAVCIS,ioos:station:WAVCIS:CSI16:2,2010-11-02T05:30:00Z,29.4012,-89.0355,1.0,32.473,11111222 
WAVCIS,ioos:station:WAVCIS:CSI16:2,2010-11-02T05:45:00Z,29.4012,-89.0355,1.0,32.456,11111222 
WAVCIS,ioos:station:WAVCIS:CSI16:2,2010-11-02T06:00:00Z,29.4012,-89.0355,1.0,32.45,11111222 
WAVCIS,ioos:station:WAVCIS:CSI16:2,2010-11-02T06:15:00Z,29.4012,-89.0355,1.0,32.437,11111222 
WAVCIS,ioos:station:WAVCIS:CSI16:2,2010-11-02T06:30:00Z,29.4012,-89.0355,1.0,32.434,11111222 
WAVCIS,ioos:station:WAVCIS:CSI16:2,2010-11-02T06:45:00Z,29.4012,-89.0355,1.0,32.417,11111222 
WAVCIS,ioos:station:WAVCIS:CSI16:2,2010-11-02T07:00:00Z,29.4012,-89.0355,1.0,32.382,11111222 
WAVCIS,ioos:station:WAVCIS:CSI16:2,2010-11-02T07:15:00Z,29.4012,-89.0355,1.0,32.351,11111222 
WAVCIS,ioos:station:WAVCIS:CSI16:2,2010-11-02T07:30:00Z,29.4012,-89.0355,1.0,32.196,11111222 
WAVCIS,ioos:station:WAVCIS:CSI16:2,2010-11-02T07:45:00Z,29.4012,-89.0355,1.0,32.229,11111222 
WAVCIS,ioos:station:WAVCIS:CSI16:2,2010-11-02T08:00:00Z,29.4012,-89.0355,1.0,32.297,11111222 
WAVCIS,ioos:station:WAVCIS:CSI16:2,2010-11-02T08:15:00Z,29.4012,-89.0355,1.0,32.287,11111222 
WAVCIS,ioos:station:WAVCIS:CSI16:2,2010-11-02T08:30:00Z,29.4012,-89.0355,1.0,32.27,11111222 
WAVCIS,ioos:station:WAVCIS:CSI16:2,2010-11-02T08:45:00Z,29.4012,-89.0355,1.0,32.302,11111222 
WAVCIS,ioos:station:WAVCIS:CSI16:2,2010-11-02T09:00:00Z,29.4012,-89.0355,1.0,32.241,11111222 
WAVCIS,ioos:station:WAVCIS:CSI16:2,2010-11-02T09:15:00Z,29.4012,-89.0355,1.0,32.3,11111222 
WAVCIS,ioos:station:WAVCIS:CSI16:2,2010-11-02T09:30:00Z,29.4012,-89.0355,1.0,32.354,11111222 
WAVCIS,ioos:station:WAVCIS:CSI16:2,2010-11-02T09:45:00Z,29.4012,-89.0355,1.0,32.359,11111222 
WAVCIS,ioos:station:WAVCIS:CSI16:2,2010-11-02T10:00:00Z,29.4012,-89.0355,1.0,32.294,11111222 
WAVCIS,ioos:station:WAVCIS:CSI16:2,2010-11-02T10:15:00Z,29.4012,-89.0355,1.0,32.321,11111222 
WAVCIS,ioos:station:WAVCIS:CSI16:2,2010-11-02T10:30:00Z,29.4012,-89.0355,1.0,32.349,11111222 
WAVCIS,ioos:station:WAVCIS:CSI16:2,2010-11-02T10:45:00Z,29.4012,-89.0355,1.0,32.351,11111222 
WAVCIS,ioos:station:WAVCIS:CSI16:2,2010-11-02T11:00:00Z,29.4012,-89.0355,1.0,32.281,11111222 
WAVCIS,ioos:station:WAVCIS:CSI16:2,2010-11-02T11:15:00Z,29.4012,-89.0355,1.0,32.266,11111222 
WAVCIS,ioos:station:WAVCIS:CSI16:2,2010-11-02T11:30:00Z,29.4012,-89.0355,1.0,32.229,11111222 
WAVCIS,ioos:station:WAVCIS:CSI16:2,2010-11-02T11:45:00Z,29.4012,-89.0355,1.0,32.426,11111222 
WAVCIS,ioos:station:WAVCIS:CSI16:2,2010-11-02T12:00:00Z,29.4012,-89.0355,1.0,32.201,11111222 
WAVCIS,ioos:station:WAVCIS:CSI16:2,2010-11-02T12:15:00Z,29.4012,-89.0355,1.0,32.362,11111222 
WAVCIS,ioos:station:WAVCIS:CSI16:2,2010-11-02T12:30:00Z,29.4012,-89.0355,1.0,32.325,11111222 
WAVCIS,ioos:station:WAVCIS:CSI16:2,2010-11-02T12:45:00Z,29.4012,-89.0355,1.0,32.466,11111222 
WAVCIS,ioos:station:WAVCIS:CSI16:2,2010-11-02T13:00:00Z,29.4012,-89.0355,1.0,32.449,11111222 
WAVCIS,ioos:station:WAVCIS:CSI16:2,2010-11-02T13:15:00Z,29.4012,-89.0355,1.0,32.569,11111222 
WAVCIS,ioos:station:WAVCIS:CSI16:2,2010-11-02T13:30:00Z,29.4012,-89.0355,1.0,32.532,11111222 
WAVCIS,ioos:station:WAVCIS:CSI16:2,2010-11-02T13:45:00Z,29.4012,-89.0355,1.0,32.55,11111222 
WAVCIS,ioos:station:WAVCIS:CSI16:2,2010-11-02T14:00:00Z,29.4012,-89.0355,1.0,32.584,11111222 
WAVCIS,ioos:station:WAVCIS:CSI16:2,2010-11-02T14:15:00Z,29.4012,-89.0355,1.0,32.594,11111222 
WAVCIS,ioos:station:WAVCIS:CSI16:2,2010-11-02T14:30:00Z,29.4012,-89.0355,1.0,32.622,11111222 
WAVCIS,ioos:station:WAVCIS:CSI16:2,2010-11-02T14:45:00Z,29.4012,-89.0355,1.0,32.665,11111222 
WAVCIS,ioos:station:WAVCIS:CSI16:2,2010-11-02T15:00:00Z,29.4012,-89.0355,1.0,32.673,11111222 
WAVCIS,ioos:station:WAVCIS:CSI16:2,2010-11-02T15:15:00Z,29.4012,-89.0355,1.0,32.626,11111222 
WAVCIS,ioos:station:WAVCIS:CSI16:2,2010-11-02T15:30:00Z,29.4012,-89.0355,1.0,32.576,11111222 
WAVCIS,ioos:station:WAVCIS:CSI16:2,2010-11-02T15:45:00Z,29.4012,-89.0355,1.0,32.542,11111222 
WAVCIS,ioos:station:WAVCIS:CSI16:2,2010-11-02T16:00:00Z,29.4012,-89.0355,1.0,32.482,11111222 
WAVCIS,ioos:station:WAVCIS:CSI16:2,2010-11-02T16:15:00Z,29.4012,-89.0355,1.0,32.461,11111222 
WAVCIS,ioos:station:WAVCIS:CSI16:2,2010-11-02T16:30:00Z,29.4012,-89.0355,1.0,32.417,11111222 
WAVCIS,ioos:station:WAVCIS:CSI16:2,2010-11-02T16:45:00Z,29.4012,-89.0355,1.0,32.432,11111222 
WAVCIS,ioos:station:WAVCIS:CSI16:2,2010-11-02T17:00:00Z,29.4012,-89.0355,1.0,32.442,11111222 
WAVCIS,ioos:station:WAVCIS:CSI16:2,2010-11-02T17:15:00Z,29.4012,-89.0355,1.0,32.478,11111222 
WAVCIS,ioos:station:WAVCIS:CSI16:2,2010-11-02T17:30:00Z,29.4012,-89.0355,1.0,32.752,11111222 
WAVCIS,ioos:station:WAVCIS:CSI16:2,2010-11-02T17:45:00Z,29.4012,-89.0355,1.0,32.465,11111222 
WAVCIS,ioos:station:WAVCIS:CSI16:2,2010-11-02T18:00:00Z,29.4012,-89.0355,1.0,32.523,11111222 
WAVCIS,ioos:station:WAVCIS:CSI16:2,2010-11-02T18:15:00Z,29.4012,-89.0355,1.0,32.535,11111222 
WAVCIS,ioos:station:WAVCIS:CSI16:2,2010-11-02T18:30:00Z,29.4012,-89.0355,1.0,32.544,11111222 
WAVCIS,ioos:station:WAVCIS:CSI16:2,2010-11-02T18:45:00Z,29.4012,-89.0355,1.0,32.567,11111222 
WAVCIS,ioos:station:WAVCIS:CSI16:2,2010-11-02T19:00:00Z,29.4012,-89.0355,1.0,32.566,11111222 
WAVCIS,ioos:station:WAVCIS:CSI16:2,2010-11-02T19:15:00Z,29.4012,-89.0355,1.0,32.582,11111222 
WAVCIS,ioos:station:WAVCIS:CSI16:2,2010-11-02T19:30:00Z,29.4012,-89.0355,1.0,32.621,11111222 
WAVCIS,ioos:station:WAVCIS:CSI16:2,2010-11-02T19:45:00Z,29.4012,-89.0355,1.0,32.616,11111222 
WAVCIS,ioos:station:WAVCIS:CSI16:2,2010-11-02T20:00:00Z,29.4012,-89.0355,1.0,32.642,11111222 
WAVCIS,ioos:station:WAVCIS:CSI16:2,2010-11-02T20:15:00Z,29.4012,-89.0355,1.0,32.602,11111222 
WAVCIS,ioos:station:WAVCIS:CSI16:2,2010-11-02T20:30:00Z,29.4012,-89.0355,1.0,32.649,11111222 
WAVCIS,ioos:station:WAVCIS:CSI16:2,2010-11-02T20:45:00Z,29.4012,-89.0355,1.0,32.668,11111222 
WAVCIS,ioos:station:WAVCIS:CSI16:2,2010-11-02T21:00:00Z,29.4012,-89.0355,1.0,32.664,11111222 
WAVCIS,ioos:station:WAVCIS:CSI16:2,2010-11-02T21:15:00Z,29.4012,-89.0355,1.0,32.68,11111222 
WAVCIS,ioos:station:WAVCIS:CSI16:2,2010-11-02T21:30:00Z,29.4012,-89.0355,1.0,32.681,11111222 
WAVCIS,ioos:station:WAVCIS:CSI16:2,2010-11-02T21:45:00Z,29.4012,-89.0355,1.0,32.658,11111222 
WAVCIS,ioos:station:WAVCIS:CSI16:2,2010-11-02T22:00:00Z,29.4012,-89.0355,1.0,32.663,11111222 
WAVCIS,ioos:station:WAVCIS:CSI16:2,2010-11-02T22:15:00Z,29.4012,-89.0355,1.0,32.554,11111222 
WAVCIS,ioos:station:WAVCIS:CSI16:2,2010-11-02T22:30:00Z,29.4012,-89.0355,1.0,32.61,11111222 
WAVCIS,ioos:station:WAVCIS:CSI16:2,2010-11-02T22:45:00Z,29.4012,-89.0355,1.0,32.641,11111222 
WAVCIS,ioos:station:WAVCIS:CSI16:2,2010-11-02T23:00:00Z,29.4012,-89.0355,1.0,32.614,11111222 
WAVCIS,ioos:station:WAVCIS:CSI16:2,2010-11-02T23:15:00Z,29.4012,-89.0355,1.0,32.588,11111222 
WAVCIS,ioos:station:WAVCIS:CSI16:2,2010-11-02T23:30:00Z,29.4012,-89.0355,1.0,32.589,11111222 
WAVCIS,ioos:station:WAVCIS:CSI16:2,2010-11-02T23:45:00Z,29.4012,-89.0355,1.0,32.583,11111222 
WAVCIS,ioos:station:WAVCIS:CSI16:2,2010-11-03T00:00:00Z,29.4012,-89.0355,1.0,32.602,11111222 
WAVCIS,ioos:station:WAVCIS:CSI16:2,2010-11-03T00:15:00Z,29.4012,-89.0355,1.0,32.615,11111222 
WAVCIS,ioos:station:WAVCIS:CSI16:2,2010-11-03T00:30:00Z,29.4012,-89.0355,1.0,32.61,11111222 
WAVCIS,ioos:station:WAVCIS:CSI16:2,2010-11-03T00:45:00Z,29.4012,-89.0355,1.0,32.636,11111222 
WAVCIS,ioos:station:WAVCIS:CSI16:2,2010-11-03T01:00:00Z,29.4012,-89.0355,1.0,32.646,11111222 
WAVCIS,ioos:station:WAVCIS:CSI16:2,2010-11-03T01:15:00Z,29.4012,-89.0355,1.0,32.651,11111222 
WAVCIS,ioos:station:WAVCIS:CSI16:2,2010-11-03T01:30:00Z,29.4012,-89.0355,1.0,32.661,11111222 
WAVCIS,ioos:station:WAVCIS:CSI16:2,2010-11-03T01:45:00Z,29.4012,-89.0355,1.0,32.651,11111222 
WAVCIS,ioos:station:WAVCIS:CSI16:2,2010-11-03T02:00:00Z,29.4012,-89.0355,1.0,32.605,11111222 
WAVCIS,ioos:station:WAVCIS:CSI16:2,2010-11-03T02:15:00Z,29.4012,-89.0355,1.0,32.641,11111222 
WAVCIS,ioos:station:WAVCIS:CSI16:2,2010-11-03T02:30:00Z,29.4012,-89.0355,1.0,32.638,11111222 
WAVCIS,ioos:station:WAVCIS:CSI16:2,2010-11-03T02:45:00Z,29.4012,-89.0355,1.0,32.636,11111222 
WAVCIS,ioos:station:WAVCIS:CSI16:2,2010-11-03T03:00:00Z,29.4012,-89.0355,1.0,32.624,11111222 
WAVCIS,ioos:station:WAVCIS:CSI16:2,2010-11-03T03:15:00Z,29.4012,-89.0355,1.0,32.608,11111222 
WAVCIS,ioos:station:WAVCIS:CSI16:2,2010-11-03T03:30:00Z,29.4012,-89.0355,1.0,32.606,11111222 
WAVCIS,ioos:station:WAVCIS:CSI16:2,2010-11-03T03:45:00Z,29.4012,-89.0355,1.0,32.639,11111222 
WAVCIS,ioos:station:WAVCIS:CSI16:2,2010-11-03T04:00:00Z,29.4012,-89.0355,1.0,32.644,11111222 
WAVCIS,ioos:station:WAVCIS:CSI16:2,2010-11-03T04:15:00Z,29.4012,-89.0355,1.0,32.644,11111222 
WAVCIS,ioos:station:WAVCIS:CSI16:2,2010-11-03T04:30:00Z,29.4012,-89.0355,1.0,32.596,11111222 
WAVCIS,ioos:station:WAVCIS:CSI16:2,2010-11-03T04:45:00Z,29.4012,-89.0355,1.0,32.557,11111222 
WAVCIS,ioos:station:WAVCIS:CSI16:2,2010-11-03T05:00:00Z,29.4012,-89.0355,1.0,32.521,11111222 
WAVCIS,ioos:station:WAVCIS:CSI16:2,2010-11-03T05:15:00Z,29.4012,-89.0355,1.0,32.504,11111222 
WAVCIS,ioos:station:WAVCIS:CSI16:2,2010-11-03T05:30:00Z,29.4012,-89.0355,1.0,32.479,11111222 
WAVCIS,ioos:station:WAVCIS:CSI16:2,2010-11-03T05:45:00Z,29.4012,-89.0355,1.0,32.416,11111222 
WAVCIS,ioos:station:WAVCIS:CSI16:2,2010-11-03T06:00:00Z,29.4012,-89.0355,1.0,32.396,11111222 
WAVCIS,ioos:station:WAVCIS:CSI16:2,2010-11-03T06:15:00Z,29.4012,-89.0355,1.0,32.328,11111222 
WAVCIS,ioos:station:WAVCIS:CSI16:2,2010-11-03T06:30:00Z,29.4012,-89.0355,1.0,32.324,11111222 
WAVCIS,ioos:station:WAVCIS:CSI16:2,2010-11-03T06:45:00Z,29.4012,-89.0355,1.0,32.293,11111222 
WAVCIS,ioos:station:WAVCIS:CSI16:2,2010-11-03T07:00:00Z,29.4012,-89.0355,1.0,32.235,11111222 
WAVCIS,ioos:station:WAVCIS:CSI16:2,2010-11-03T07:15:00Z,29.4012,-89.0355,1.0,32.254,11111222 
WAVCIS,ioos:station:WAVCIS:CSI16:2,2010-11-03T07:30:00Z,29.4012,-89.0355,1.0,32.147,11111222 
WAVCIS,ioos:station:WAVCIS:CSI16:2,2010-11-03T07:45:00Z,29.4012,-89.0355,1.0,32.148,11111222 
WAVCIS,ioos:station:WAVCIS:CSI16:2,2010-11-03T08:00:00Z,29.4012,-89.0355,1.0,32.019,11111222 
WAVCIS,ioos:station:WAVCIS:CSI16:2,2010-11-03T08:15:00Z,29.4012,-89.0355,1.0,31.877,11111222 
WAVCIS,ioos:station:WAVCIS:CSI16:2,2010-11-03T08:30:00Z,29.4012,-89.0355,1.0,31.842,11111222 
WAVCIS,ioos:station:WAVCIS:CSI16:2,2010-11-03T08:45:00Z,29.4012,-89.0355,1.0,31.492,11111222 
WAVCIS,ioos:station:WAVCIS:CSI16:2,2010-11-03T09:00:00Z,29.4012,-89.0355,1.0,31.195,11111222 
WAVCIS,ioos:station:WAVCIS:CSI16:2,2010-11-03T09:15:00Z,29.4012,-89.0355,1.0,31.63,11111222 
WAVCIS,ioos:station:WAVCIS:CSI16:2,2010-11-03T09:30:00Z,29.4012,-89.0355,1.0,31.461,11111222 
WAVCIS,ioos:station:WAVCIS:CSI16:2,2010-11-03T09:45:00Z,29.4012,-89.0355,1.0,31.115,11111222 
WAVCIS,ioos:station:WAVCIS:CSI16:2,2010-11-03T10:00:00Z,29.4012,-89.0355,1.0,31.051,11111222 
WAVCIS,ioos:station:WAVCIS:CSI16:2,2010-11-03T10:15:00Z,29.4012,-89.0355,1.0,31.126,11111222 
WAVCIS,ioos:station:WAVCIS:CSI16:2,2010-11-03T10:30:00Z,29.4012,-89.0355,1.0,31.058,11111222 
WAVCIS,ioos:station:WAVCIS:CSI16:2,2010-11-03T10:45:00Z,29.4012,-89.0355,1.0,30.817,11111222 
WAVCIS,ioos:station:WAVCIS:CSI16:2,2010-11-03T11:00:00Z,29.4012,-89.0355,1.0,30.997,11111222 
WAVCIS,ioos:station:WAVCIS:CSI16:2,2010-11-03T11:15:00Z,29.4012,-89.0355,1.0,31.413,11111222 
WAVCIS,ioos:station:WAVCIS:CSI16:2,2010-11-03T11:30:00Z,29.4012,-89.0355,1.0,30.691,11111222 
WAVCIS,ioos:station:WAVCIS:CSI16:2,2010-11-03T11:45:00Z,29.4012,-89.0355,1.0,30.604,11111222 
WAVCIS,ioos:station:WAVCIS:CSI16:2,2010-11-03T12:00:00Z,29.4012,-89.0355,1.0,30.226,11111222 
WAVCIS,ioos:station:WAVCIS:CSI16:2,2010-11-03T12:15:00Z,29.4012,-89.0355,1.0,30.393,11111222 
WAVCIS,ioos:station:WAVCIS:CSI16:2,2010-11-03T12:30:00Z,29.4012,-89.0355,1.0,30.623,11111222 
WAVCIS,ioos:station:WAVCIS:CSI16:2,2010-11-03T12:45:00Z,29.4012,-89.0355,1.0,30.757,11111222 
WAVCIS,ioos:station:WAVCIS:CSI16:2,2010-11-03T13:00:00Z,29.4012,-89.0355,1.0,30.14,11111222 
WAVCIS,ioos:station:WAVCIS:CSI16:2,2010-11-03T13:15:00Z,29.4012,-89.0355,1.0,30.154,11111222 
WAVCIS,ioos:station:WAVCIS:CSI16:2,2010-11-03T13:30:00Z,29.4012,-89.0355,1.0,30.075,11111222 
WAVCIS,ioos:station:WAVCIS:CSI16:2,2010-11-03T13:45:00Z,29.4012,-89.0355,1.0,30.126,11111222 
WAVCIS,ioos:station:WAVCIS:CSI16:2,2010-11-03T14:00:00Z,29.4012,-89.0355,1.0,30.237,11111222 
WAVCIS,ioos:station:WAVCIS:CSI16:2,2010-11-03T14:15:00Z,29.4012,-89.0355,1.0,30.073,11111222 
WAVCIS,ioos:station:WAVCIS:CSI16:2,2010-11-03T14:30:00Z,29.4012,-89.0355,1.0,30.346,11111222 
WAVCIS,ioos:station:WAVCIS:CSI16:2,2010-11-03T14:45:00Z,29.4012,-89.0355,1.0,30.328,11111222 
WAVCIS,ioos:station:WAVCIS:CSI16:2,2010-11-03T15:00:00Z,29.4012,-89.0355,1.0,30.648,11111222 
WAVCIS,ioos:station:WAVCIS:CSI16:2,2010-11-03T15:15:00Z,29.4012,-89.0355,1.0,30.81,11111222 